Location: Allie Creek
(37.5926°N, 89.8526°W)
Time: 12:14:02
(UTC+00:00)

OAO 2 Rocket - Pass Details

Date: 26 September 2023
Orbit: 673 x 742 km, 35.0° (Epoch: 10 December)

Event Time Altitude Azimuth Distance (km) Brightness Sun altitude
Exits shadow 10:01:51 53° 214° (SW) 829 3.3 -22.1°
Maximum altitude 10:02:37 61° 173° (S) 766 3.4 -21.9°
Drops below altitude 10° 10:07:27 10° 93° (E) 2,097 6.8 -21.0°
Sets 10:09:50 0° 90° (E) 3,010 8.0 -20.6°
